Regional Weather Roundup
Issued by NWS State College, PA

Home | Current Version | Previous Version | Text Only | Print | Product List | Glossary On
Versions: 1 2 3 4 5 6 7 8 9 10 11 12 13 14 15 16 17 18 19 20 21 22 23 24 25 26 27 28 29 30 31 32 33 34 35 36 37 38 39 40 41 42 43 44 45 46 47 48 49 50
000
ASUS41 KCTP 312210
RWRCTP

REGIONAL WEATHER ROUNDUP
NATIONAL WEATHER SERVICE STATE COLLEGE PA
600 PM EDT THU JUL 31 2014

Note: "fair" indicates few or no clouds below 12,000 feet with no
significant weather and/or obstructions to visibility.

* = STATION THAT DOES NOT REPORT PRECIPITATION /E.G. RAIN...SNOW...ETC/
    THUNDER OR FOG.

PAZ002>004-007>009-013>016-020>023-029>032-312300-
WESTERN PENNSYLVANIA

CITY           SKY/WX    TMP DP  RH WIND       PRES   REMARKS
ERIE           SUNNY     74  51  44 W7        30.08S
MEADVILLE      SUNNY     73  51  46 SW6       30.10S
FRANKLIN*      SUNNY     73  54  49 W7        30.12R
NEW CASTLE     FAIR      78  59  52 W6        30.10R
BEAVER COUNTY  SUNNY     77  59  53 SW9       30.10R
BUTLER*        MOSUNNY   75  61  60 W9        30.12R
PITTSBURGH INT MOSUNNY   77  58  51 SW8       30.09S
PITTSBURGH     MOSUNNY   77  57  50 SW10      30.09R
INDIANA*       PTSUNNY   75  63  64 VRB7      30.14R
LATROBE        PTSUNNY   77  63  61 SW9       30.11S
WASHINGTON CO* SUNNY     75  59  57 SW8       30.11R
$$

PAZ004>006-010>012-017>019-024>028-033>037-041-042-045-046-049>053-312300-
CENTRAL PENNSYLVANIA

CITY           SKY/WX    TMP DP  RH WIND       PRES   REMARKS
BRADFORD       SUNNY     72  47  40 W8G17     30.11R
DUBOIS         PTSUNNY   71  60  68 W7        30.11R
CLEARFIELD     CLOUDY    72  58  61 SW8       30.12R
JOHNSTOWN      MOSUNNY   73  56  54 W12       30.14S
ALTOONA        PTSUNNY   77  57  50 SW13      30.12R
STATE COLLEGE  LGT RAIN  73  61  64 NW6       30.10S
WILLIAMSPORT   SUNNY     78  62  57 S6        30.06S
SELINSGROVE    LGT RAIN  71  67  87 CALM      30.09S FOG
FT INDIANTOWN  MOSUNNY   80  61  51 S7        30.09R
CAPITAL CITY   SUNNY     79  60  52 S6        30.08R
HARRISBURG     PTSUNNY   81  60  48 CALM      30.07S
YORK           MOSUNNY   81  58  45 VRB5      30.09R
$$

PAZ038>040-043-044-047-048-054-055-060>062-067>071-312300-
EASTERN PENNSYLVANIA

CITY           SKY/WX    TMP DP  RH WIND       PRES   REMARKS
SCRANTON       PTSUNNY   78  55  44 SW10      30.10R
MOUNT POCONO   MOSUNNY   71  56  58 SW8       30.15R
ALLENTOWN      LGT RAIN  76  59  55 W3        30.10R
QUAKERTOWN*    MOCLDY    79  63  57 W3        30.11R
READING        MOSUNNY   79  63  57 NE5       30.08S
LANCASTER      MOSUNNY   79  59  50 SW12      30.09R
COATESVILLE    CLEAR     79  61  53 W7        30.11S
POTTSTOWN      MOSUNNY   81  60  48 SW9       30.10S
BLUE BELL      MOSUNNY   82  61  47 SW6       30.08S
DOYLESTOWN     PTSUNNY   80  59  48 SW5       30.08S
WILLOW GROVE   NOT AVBL
NORTH PHILA    MOSUNNY   84  57  39 SW8       30.09S
PHILADELPHIA   MOSUNNY   85  58  39 SW12      30.08F
$$


USA.gov is the U.S. government's official web portal to all federal, state and local government web resources and services.